236  
ASUS44 KLCH 231610  
RWRLCH  
REGIONAL WEATHER ROUNDUP  
NATIONAL WEATHER SERVICE LAKE CHARLES LA  
1100 AM CDT SAT JUN 23 2018  
 
NOTE: "FAIR" INDICATES FEW OR NO CLOUDS BELOW 12,000 FEET WITH NO  
SIGNIFICANT WEATHER AND/OR S TO VISIBILITY
.  
 
ACROSS SOUTHEAST TEXAS  
 
CITY SKY/WX TMP DP RH WIND PRES REMARKS
 
BEAUMONT PTSUNNY 89 77 67 S16G25 29.91R HX 101  
BEAUMONT CITY PTSUNNY 89 76 64 S14 29.92S HX 100  
ORANGE CLOUDY 87 79 78 S12G21 29.93S HX 101  
JASPER FAIR 86 76 72 SW7 29.95R  

 
 
ACROSS CENTRAL LOUISIANA  
 
CITY SKY/WX TMP DP RH WIND PRES REMARKS
 
LEESVILLE FAIR 85 74 68 W12 29.93R  
FULLERTON PTSUNNY 87 76 69 VRB6 29.92R  
ALEXANDRIA INT PTSUNNY 86 76 71 SW10 29.93R  
ESLER FIELD FAIR 88 75 65 SW14 29.95R  
DERIDDER PTSUNNY 85 73 66 W6 29.96R  
OAKDALE CLOUDY 87 76 67 SW8 29.95R  
OPELOUSAS PTSUNNY 85 75 71 S9G17 29.94S  

 
 
ACROSS SOUTHWEST AND SOUTH CENTRAL LOUISIANA  
 
CITY SKY/WX TMP DP RH WIND PRES REMARKS
 
SULPHUR FAIR 89 76 65 S16G22 29.94S HX 100  
LAKE CHARLES PTSUNNY 88 77 69 S15G22 29.93S HX 100  
CHENNAULT INT PTSUNNY 88 77 70 S13G20 29.94R HX 100  
CAMERON PHI CLOUDY 84 79 84 S12G18 29.94R  
DEQUINCY PTSUNNY 88 75 65 S10G16 29.93R  
JENNINGS PTSUNNY 87 76 70 S10G20 29.94S  
LAFAYETTE FAIR 89 76 65 S12 29.95R HX 100  
NEW IBERIA FAIR 88 75 65 SW12 29.97R  
ABBEVILLE FAIR 88 79 74 SW9G16 29.97R HX 102  
PATTERSON FAIR 87 77 72 SW16 29.98S  
SALT POINT N/A N/A N/A N/A MISG 29.96S  

 
 
SELECTED SITES ACROSS THE REGION  
 
CITY SKY/WX TMP DP RH WIND PRES REMARKS
 
HOUSTON BUSH PTSUNNY 88 76 67 SW10 29.89R  
HOUSTON HOBBY PTSUNNY 89 78 70 S15G23 29.88F HX 103  
GALVESTON PTSUNNY 86 80 82 S17 29.92R HX 101  
COLLEGE STAT MOSUNNY 85 73 67 S15 29.88S  
CONROE MOSUNNY 88 76 67 S15G22 29.90S  
HUNTSVILLE MOSUNNY 86 73 65 S13G20 29.91R  
LUFKIN PTSUNNY 85 71 63 W10 29.93R  
SHREVEPORT PTSUNNY 87 73 62 SW8 29.93S  
MONROE PTSUNNY 86 73 65 W13 29.94R  
NATCHEZ MS FAIR 86 74 67 SW13 29.97R  
BATON ROUGE PTSUNNY 87 75 67 SW12 29.94F  
N.O. INTL ARPT PTSUNNY 90 76 63 SW12 29.97S HX 101  
SLIDELL FAIR 88 74 63 SW6 29.97S  

 
 
MARINE REPORTS  
 
STATION/POSITION TIME SKY/WX TEMP WIND PRES VSBY
 
AIR SEA DIR/SP/G  
(UTC) (F) (DEG/KT/KT) (MB) (MI)  
BUOY 30 S HIGH I NOT AVBL  
SEA RIM ST PARK 1600 84 190/ 13/ 17 1013.6R  
PORT ARTHUR NOT AVBL  
SABINE PASS N NOT AVBL  
TEXAS POINT NOT AVBL  
CALCASIEU PASS NOT AVBL  
LK CHARLES BEACH NOT AVBL  
MARSH ISLAND 1500 84 N/A  
FRESH WATER LOCK NOT AVBL  
AMERADA PASS NOT AVBL  

 
 
 
CLICK HERE TO GO TO PREVIOUS BULLETINS.

The Nexlab LA Page
The Nexlab TX Page Main Text Page